Location: Observatory
(52.1446°N, 0.4624°W)
Time: 03:21:27
(UTC+00:00)

ISS - Pass Details

Date: 22 February 2020
Orbit: 415 x 423 km, 51.6° (Epoch: 27 February)

Event Time Altitude Azimuth Distance (km) Brightness Sun altitude
Rises 05:41:06 0° 191° (SSW) 2,355 -0.1 -13.4°
Reaches altitude 10° 05:44:34 10° 153° (SSE) 1,500 -0.6 -12.9°
Maximum altitude 05:45:29 11° 137° (SE) 1,451 -0.4 -12.8°
Drops below altitude 10° 05:46:23 10° 122° (ESE) 1,504 0.0 -12.6°
Sets 05:49:53 0° 83° (E) 2,376 2.1 -12.1°
